Hourly Weather Roundup
Issued by NWS Central Illinois

Home | Current Version | Previous Version | Text Only | Print | Product List | Glossary On
Versions: 1 2 3 4 5 6 7 8 9 10 11 12 13 14 15 16 17 18 19 20 21 22 23 24 25 26 27 28 29 30 31 32 33 34 35 36 37 38 39 40 41 42 43 44 45 46 47 48 49 50
000
NZUS43 KILX 021010
HWRILX

AREA WEATHER ROUNDUP
NATIONAL WEATHER SERVICE, LINCOLN IL
500 AM CDT TUE JUN 02 2015


CITY           SKY/WX    TMP DP  RH WIND       PRES   REMARKS
BLOOMINGTON    CLOUDY    52  48  86 NE5       30.18R
CHAMPAIGN      CLEAR     52  50  93 NE6       30.16S
DANVILLE       CLEAR     48  48  98 N6        30.14S FOG
DECATUR        CLEAR     51  49  92 NE6       30.15S
EFFINGHAM      CLOUDY    55  51  89 CALM      30.14S FOG
FLORA          CLOUDY    57  52  82 E3        30.12S
GALESBURG      CLEAR     49  45  83 E3        30.17S
JACKSONVILLE   CLOUDY    57  55  92 E7        30.15S
LACON          CLEAR     44  42  91 CALM      30.18R
LAWRENCEVILLE  CLOUDY    57  52  83 NE5       30.13R
LITCHFIELD       N/A     51  50  95 N3        30.15R FOG
$$


CITY           SKY/WX    TMP DP  RH WIND       PRES   REMARKS
LINCOLN        CLOUDY    55  51  87 E3        30.16R
MACOMB         PTCLDY    49  49 100 NE5       30.19S FOG
MATTOON        PTCLDY    50  48  93 NE5       30.13S FOG
MT CARMEL AP   CLOUDY    59  52  77 NE6       30.12S
OLNEY-NOBLE AP CLOUDY    55  52  88 NE3       30.12S
PARIS          CLEAR     50  49  95 N5        30.15S
PEORIA         PTCLDY    50  43  77 NE5       30.17S
PONTIAC        CLOUDY    51  47  86 CALM      30.18S
RANTOUL        CLEAR     51  49  90 NE5       30.17R
ROBINSON       CLOUDY    56  51  81 CALM      30.13F
SPRINGFIELD    CLOUDY    55  52  89 NE3       30.16R
TAYLORVILLE    CLEAR     50  50 100 N6        30.15R FOG
$$

...REGIONAL REPORTS...


CITY           SKY/WX    TMP DP  RH WIND       PRES   REMARKS
CHICAGO O`HARE PTCLDY    42  38  85 CALM      30.18S
KANKAKEE       CLEAR     43  42  94 NE3       30.18F
MOLINE         PTCLDY    50  46  86 CALM      30.18R
MOUNT VERNON   CLOUDY    57  52  82 NE3       30.13R
PITTSFIELD     CLOUDY    57  54  89 CALM      30.16S
QUINCY         CLOUDY    56  53  90 NE5       30.15S
ROCKFORD       PTCLDY    44  38  79 CALM      30.20F
$$


CITY           SKY/WX    TMP DP  RH WIND       PRES   REMARKS
BURLINGTON     PTCLDY    54  53  97 E7        30.15S
CEDAR RAPIDS   CLOUDY    53  48  83 E5        30.14F
DES MOINES     PTCLDY    57  51  80 SE7       30.11R
KIRKSVILLE     CLOUDY    52  52 100 CALM      30.14F
OTTUMWA        CLEAR     51  51 100 SE5       30.13F
ST LOUIS       MOCLDY    61  56  83 CALM      30.14R
$$


CITY           SKY/WX    TMP DP  RH WIND       PRES   REMARKS
TERRE HAUTE    CLOUDY    52  50  93 N6        30.14R
EVANSVILLE     CLOUDY    59  55  87 NE5       30.11R
INDIANAPOLIS   PTCLDY    50  45  83 NE8       30.12S
LAFAYETTE      CLEAR     47  45  93 NE5       30.17R
MADISON        CLEAR     41  35  79 CALM      30.19S
MILWAUKEE      PTCLDY    41  34  76 NW3       30.20S
$$





USA.gov is the U.S. government's official web portal to all federal, state and local government web resources and services.